Theta_e
290 290 290 290 291 291 290 291 291 291 291 291 292 293 293 291 289 289 289 290 289 289 287 288 287 286 285 285 284 284 284 284 283 281 283 283 283 282 282 282 282 281 282
289 289 289 289 289 289 289 290 290 289 290 290 291 291 292 291 289 289 288 288 287 286 286 286 284 283 283 284 284 283 283 284 284 280 281 281 282 281 280 279 279 279 279
288 288 288 288 288 288 289 289 289 289 289 289 289 290 290 290 288 288 288 287 287 285 284 284 283 283 282 282 283 282 282 281 282 281 279 281 281 280 278 279 278 277 277
287 287 287 287 287 288 288 288 288 288 287 287 288 289 289 288 287 286 286 286 285 284 283 283 282 282 282 282 281 281 281 280 280 280 279 278 278 277 276 275 274 275 273
286 286 287 287 287 287 287 287 287 287 287 286 286 286 286 286 285 285 285 285 283 282 282 282 282 282 283 282 281 280 279 279 278 277 276 276 276 274 272 272 270 271 271
285 285 286 286 286 286 286 286 286 286 285 285 285 284 285 285 286 286 285 283 283 282 281 281 281 281 281 281 280 280 279 277 276 276 274 272 270 271 271 269 268 266 266
284 284 285 285 285 285 285 285 284 284 284 284 283 284 284 285 286 285 284 283 282 282 281 281 281 281 281 280 279 278 276 276 275 273 271 270 269 268 267 266 265 264 264
283 283 284 284 283 284 283 283 283 283 283 282 282 284 285 285 286 284 283 282 282 281 280 279 278 276 275 273 272 271 270 270 270 270 269 269 268 268 267 265 263 261 263
280 282 282 283 282 282 281 281 281 282 282 281 282 283 284 285 284 283 281 279 277 277 277 277 276 275 276 273 269 267 266 265 266 268 268 267 265 266 265 262 261 259 260
275 278 280 281 281 280 280 279 280 281 280 282 283 285 284 283 283 281 279 278 276 276 276 277 277 276 275 272 268 266 263 262 262 261 261 262 261 261 261 260 260 258 258
274 276 277 278 278 279 279 279 279 280 281 282 283 283 282 281 281 280 280 278 276 276 276 276 275 275 273 271 268 265 262 261 260 260 261 261 261 260 260 259 258 257 257
275 276 275 277 277 278 278 279 280 281 281 279 278 278 279 280 280 280 279 278 278 277 276 276 275 274 272 270 267 266 263 260 260 260 260 259 258 258 258 258 257 257 257
274 274 275 276 278 279 278 278 279 280 279 277 277 277 277 278 278 279 279 278 277 274 275 275 275 273 270 267 265 262 259 259 259 258 258 258 257 257 256 257 258 258 258
272 273 275 275 276 277 278 278 278 278 277 277 276 276 276 277 277 277 276 275 275 274 271 265 265 265 263 260 259 259 258 257 257 257 257 257 257 258 257 258 256 257 256
270 271 272 273 273 273 274 276 276 277 278 276 275 275 273 272 273 274 272 271 270 269 265 263 262 261 260 259 258 257 257 257 257 256 256 256 256 257 257 258 256 256 255
269 270 271 272 273 274 274 275 278 278 277 277 277 275 274 275 276 274 273 272 271 267 263 262 260 260 259 258 258 257 257 256 256 255 256 256 255 255 255 255 257 256 256
269 270 271 272 273 274 274 274 273 276 278 277 277 277 276 276 275 275 274 272 270 265 262 261 260 259 258 257 257 256 256 255 252 254 254 254 254 254 253 254 255 256 256
269 270 271 272 273 273 274 274 274 274 273 274 277 276 277 276 275 273 271 265 260 260 259 258 257 257 257 256 256 255 255 255 254 254 254 254 253 253 253 254 255 254 254
268 268 269 269 269 271 273 274 274 273 272 270 271 270 272 272 269 266 263 260 258 257 256 256 256 256 255 255 254 254 252 253 251 251 253 253 253 253 253 253 253 252 252
266 266 267 268 268 268 268 267 266 266 265 264 262 260 260 259 257 257 257 257 256 256 255 254 254 253 253 253 253 252 252 253 253 253 253 253 253 253 252 252 253 253 253
265 265 265 266 266 266 265 265 264 263 262 261 259 260 260 257 256 256 255 255 255 254 254 254 253 253 252 252 251 252 252 252 252 252 252 253 252 251 253 253 253 253 253
264 264 264 264 263 263 262 263 262 261 261 261 261 261 259 256 255 254 253 252 252 252 252 252 253 253 252 251 251 251 251 251 252 252 252 251 251 252 253 253 253 253 254
262 262 262 262 261 261 261 261 261 260 258 257 256 255 255 254 253 253 252 251 251 250 249 249 250 250 251 249 250 249 249 250 251 251 249 250 251 252 253 252 253 253 254
261 261 261 260 260 260 259 259 258 257 256 255 255 254 253 253 252 251 250 250 250 250 249 248 248 248 248 248 250 251 250 249 249 249 248 248 249 251 252 253 254 254 254
260 260 259 259 259 258 257 257 256 255 255 254 253 253 252 252 251 250 249 248 247 248 249 248 248 248 247 247 247 248 249 249 249 249 249 250 249 250 252 253 254 254 257
258 258 258 257 257 257 256 256 255 254 253 253 252 252 252 251 251 250 248 247 247 247 247 248 248 248 248 248 249 250 250 254 255 256 256 254 255 257 257 258 259 260 261
Wind_Speed
8 8 9 9 10 9 9 10 10 9 10 11 12 12 12 12 10 9 8 10 10 8 7 8 7 5 4 4 3 3 3 3 3 2 2 6 5 4 1 2 3 5 4
7 8 8 8 9 9 9 9 9 10 9 10 10 11 12 12 11 11 11 10 11 9 8 8 8 6 6 5 4 4 3 2 2 6 5 4 3 2 2 5 4 4 6
6 7 8 8 9 9 9 9 8 8 8 9 9 11 11 11 11 9 10 10 10 8 8 9 10 10 7 6 5 4 4 3 3 3 4 2 2 1 4 4 5 6 6
4 6 7 8 8 8 7 8 8 8 8 7 6 7 7 9 9 9 9 10 9 8 7 8 8 9 10 9 7 7 5 5 5 4 4 3 1 2 4 5 6 6 9
5 5 6 6 6 7 7 7 7 7 7 7 7 6 7 8 7 9 9 10 11 11 9 8 7 7 11 9 5 6 6 4 4 4 3 1 1 3 4 4 7 9 10
4 4 5 6 7 7 7 7 7 7 7 8 8 9 8 5 16 17 12 10 10 11 11 11 12 12 14 18 16 14 9 5 4 3 3 2 1 3 5 6 8 8 6
4 4 6 6 7 7 7 8 7 8 8 8 8 8 8 8 18 19 19 10 11 11 12 12 10 9 12 13 19 19 18 18 12 5 4 4 3 5 6 7 8 8 9
4 4 5 6 7 7 7 7 7 7 7 7 8 8 8 8 19 20 21 13 12 12 12 12 13 12 12 12 12 11 11 10 9 6 6 5 5 6 6 5 8 10 10
7 5 3 5 7 7 7 7 7 8 8 8 8 8 10 11 22 22 18 13 13 13 11 11 11 12 15 16 11 10 8 7 9 11 9 9 8 9 8 5 5 8 8
10 7 4 4 6 7 7 8 7 7 8 8 9 9 14 14 18 20 18 11 14 11 11 12 16 12 15 11 8 7 7 5 4 5 5 5 6 6 7 5 4 6 7
8 7 7 6 7 8 8 8 9 10 10 11 13 11 13 13 13 19 22 12 11 11 10 10 9 17 15 14 13 7 6 4 5 3 3 3 4 4 3 4 4 5 7
7 8 8 7 6 6 9 9 10 11 13 12 13 11 10 11 15 18 20 20 18 12 11 9 11 18 16 15 12 13 11 6 3 3 3 3 4 5 6 6 8 8 9
8 8 8 8 8 7 9 9 9 10 10 10 10 10 10 8 9 21 24 24 22 14 10 15 19 17 17 14 13 11 7 4 4 3 4 4 4 6 8 8 8 10 12
8 8 7 7 8 8 6 5 6 7 9 9 10 10 10 9 10 10 11 13 21 15 18 11 12 12 12 10 6 6 5 4 4 4 4 5 5 6 7 6 8 10 11
6 6 7 6 7 7 7 6 5 6 7 9 9 9 11 10 9 13 13 11 10 14 13 8 6 5 5 4 4 4 4 3 4 4 4 6 6 7 8 7 7 9 10
5 5 5 5 5 6 7 8 13 14 18 20 19 13 9 19 22 21 21 22 23 17 7 6 5 4 4 3 3 3 3 3 4 4 5 6 7 8 9 9 9 10 12
5 5 5 5 5 6 7 8 10 13 22 22 24 24 22 21 22 21 22 20 16 9 7 6 5 4 4 3 3 2 2 3 4 4 5 6 7 8 9 10 10 11 12
6 6 4 5 6 6 7 9 9 11 12 12 19 18 23 23 22 20 19 14 7 8 6 6 5 4 4 3 2 2 3 3 4 5 6 6 7 8 9 10 11 12 13
4 4 4 5 5 6 5 8 8 10 12 11 11 14 15 21 19 14 8 5 7 7 6 6 4 4 3 2 1 2 3 4 5 5 6 6 7 7 10 10 12 15 16
6 7 5 5 6 7 8 9 10 10 10 10 10 8 6 6 6 7 7 7 7 6 5 5 4 3 2 1 2 3 4 4 5 6 7 7 7 8 10 11 11 12 14
4 6 8 6 6 7 8 9 9 9 9 9 8 6 8 6 7 6 6 6 6 5 5 4 3 1 0 2 3 3 4 5 5 6 7 8 8 10 10 11 11 12 14
5 5 6 7 7 8 8 8 9 9 10 9 9 9 13 6 6 6 6 6 4 4 3 2 1 1 2 3 3 4 5 6 7 7 8 8 9 10 10 11 12 13 15
5 7 7 7 8 11 9 9 9 9 9 9 7 6 5 5 5 5 5 4 3 3 2 1 2 2 2 3 4 5 6 7 7 7 8 9 10 10 10 12 13 15 15
5 7 9 8 8 9 9 10 9 10 9 8 7 6 4 5 5 4 3 3 2 1 0 2 2 4 5 5 5 5 7 8 7 8 10 10 11 12 11 13 14 18 16
6 8 8 9 9 9 10 10 9 9 8 7 6 5 4 4 4 3 2 2 1 2 3 3 3 6 7 9 10 12 13 14 11 12 9 11 14 16 14 13 16 16 21
7 8 8 8 9 9 9 9 9 8 7 6 6 5 4 3 3 2 1 0 1 3 4 4 5 8 10 9 11 13 14 15 14 15 12 10 11 12 12 17 22 17 21
Wind_Direction
194 193 195 194 195 189 189 193 190 182 183 187 190 190 188 183 170 171 177 184 192 182 175 179 174 171 168 161 166 171 169 191 183 120 112 157 156 161 156 325 319 310 295
194 189 193 186 186 189 195 191 181 182 183 184 184 187 188 185 175 175 178 182 180 168 173 165 160 153 159 149 156 143 136 120 159 153 141 149 163 123 343 320 318 313 307
194 190 181 182 187 193 192 185 181 176 177 175 179 185 185 182 177 176 177 167 167 153 158 172 160 153 153 147 138 128 107 78 67 137 124 119 119 48 322 310 315 306 304
203 192 184 185 183 185 178 177 172 177 166 157 164 162 164 160 160 151 152 152 152 148 153 156 149 156 152 146 139 131 124 108 93 99 89 111 28 27 325 318 308 316 311
189 187 178 168 169 161 162 166 166 173 171 158 139 131 139 144 147 143 140 140 142 140 128 118 114 118 121 120 124 113 115 108 103 107 108 123 32 341 338 330 310 316 307
172 168 158 155 158 155 151 153 155 159 156 156 155 148 147 143 156 151 141 135 128 129 123 113 114 114 109 102 97 84 74 93 99 105 90 78 19 337 334 329 318 326 326
148 147 147 147 140 140 140 144 149 153 150 152 149 147 143 147 154 146 133 122 123 122 121 121 115 111 115 106 96 87 75 69 64 71 91 48 348 358 332 318 320 306 289
92 115 125 130 127 130 131 133 129 136 135 137 137 135 133 140 144 133 121 113 110 112 117 120 117 112 108 107 109 96 83 69 57 56 57 40 22 348 340 325 314 299 287
26 54 79 115 121 124 121 118 113 121 123 124 133 132 128 130 135 133 116 112 109 109 106 105 106 109 116 117 113 110 98 74 50 52 56 48 32 15 13 327 330 317 317
2 2 40 74 111 109 115 111 103 115 118 124 122 124 121 121 134 133 118 118 115 113 108 107 109 112 110 104 109 119 106 68 46 40 36 32 27 14 20 9 330 314 315
360 21 42 66 92 106 104 109 118 118 120 118 116 104 104 110 129 133 127 122 123 122 122 119 113 115 110 96 87 80 92 102 53 45 24 15 5 355 350 336 304 288 285
32 46 51 61 78 96 105 112 117 124 118 112 109 102 98 110 125 127 124 122 127 121 119 111 113 109 98 87 82 84 80 75 58 41 19 9 348 335 327 316 299 274 266
50 53 59 71 81 93 109 117 120 121 121 121 117 114 115 110 118 131 125 121 117 106 113 120 116 108 93 86 83 77 64 52 38 31 7 349 332 318 306 298 298 285 278
56 58 61 75 82 88 100 104 120 126 125 123 123 121 122 121 116 118 115 121 118 106 93 88 105 104 96 93 73 61 56 43 26 11 348 329 311 311 313 314 311 314 307
68 62 66 70 79 80 65 82 91 95 131 130 123 123 127 123 124 125 122 118 113 107 102 105 112 107 97 88 80 64 52 30 16 356 335 328 323 319 312 320 309 309 297
82 76 72 88 89 98 105 105 101 113 118 117 118 115 112 124 129 127 122 121 122 118 106 116 111 105 100 95 80 72 44 15 3 334 327 322 316 316 317 320 310 305 300
76 86 95 97 107 114 115 114 118 114 117 120 123 123 122 128 129 131 127 124 119 108 112 114 114 112 107 93 75 42 7 359 328 316 317 311 309 310 314 314 307 303 297
81 72 97 107 115 119 122 124 126 125 120 119 116 119 123 123 118 115 112 106 97 81 97 109 111 110 107 102 76 10 333 327 322 314 306 306 305 305 307 305 305 302 300
82 83 86 79 75 91 110 132 125 114 112 102 96 84 95 105 102 102 102 108 112 106 102 100 99 101 99 86 14 319 312 308 315 304 301 299 301 302 300 298 298 298 298
91 93 99 110 105 100 101 97 99 103 103 100 95 92 81 81 102 90 87 97 100 101 104 109 106 103 89 344 312 310 307 310 313 305 303 304 302 300 297 298 296 302 301
105 105 110 104 107 108 109 107 107 105 101 97 96 114 122 113 105 99 102 93 98 100 102 104 114 112 266 296 296 301 304 306 302 296 300 304 306 302 299 295 294 294 293
120 119 116 118 116 110 108 109 109 110 109 112 110 102 99 93 101 106 102 94 87 80 69 72 82 345 311 299 307 303 302 299 298 298 302 303 299 297 294 295 298 297 299
130 123 117 113 114 117 111 110 109 104 105 104 107 104 100 102 103 102 104 102 98 94 80 320 314 306 294 274 273 275 284 286 293 302 296 297 296 294 298 298 298 300 300
140 135 131 128 128 123 118 113 107 109 110 108 110 111 116 108 104 102 96 94 86 72 303 277 278 287 297 291 285 274 267 269 276 279 279 282 286 292 292 294 295 295 295
141 134 130 132 130 123 120 116 116 113 114 116 119 116 117 113 113 107 91 65 11 320 308 299 287 292 292 292 287 283 278 280 274 274 270 265 268 279 282 287 291 294 296
125 125 121 120 118 116 115 119 116 117 117 117 118 124 123 118 114 114 101 341 310 299 296 291 290 291 292 290 283 283 283 284 283 268 253 253 269 282 287 292 299 302 305